DW0683 Weather Reports


Display with metric or nautical units.
time (UTC)temp
F
wind
direction
speed
MPH
gust
MPH
rain 1hr
in
rain 24hr
in
rain mn
in
humidity
%
barometer
mb
20260510110813 0 0.0 0.0 0.00 0.00 0.00 1014.5
20260510103830 0 0.0 0.0 0.00 0.00 0.00 1013.5
20260510100824 0 0.0 0.0 0.00 0.00 0.00 1013.2
20260510093820 0 0.0 0.0 0.00 0.00 0.00 1013.4
20260510090813 0 0.0 0.0 0.00 0.00 0.00 1013.4
20260510083829 0 0.0 0.0 0.00 0.00 0.00 1013.3
20260510080844 0 0.0 0.0 0.00 0.00 0.00 1013.4
20260510073839 0 0.0 0.0 0.00 0.00 0.00 1013.5
20260510070830 0 0.0 0.0 0.00 0.00 0.00 1013.8
20260510063826 0 0.0 0.0 0.00 0.00 0.00 1014.0
20260510060820 0 0.0 0.0 0.00 0.00 0.00 1014.0
20260510053816 0 0.0 0.0 0.00 0.00 0.00 1014.6
20260510050829 76 273 0.0 0.0 0.00 0.00 0.00 44 1014.8
20260510043824 76 273 0.0 0.0 0.00 0.00 0.00 45 1014.9
20260510040818 77 273 0.0 0.0 0.00 0.00 0.00 47 1014.9
20260510033854 77 273 0.0 0.0 0.00 0.00 0.00 49 1014.8
20260510030848 78 273 0.0 2.0 0.00 0.00 0.00 51 1014.6
20260510023823 78 273 0.0 2.0 0.00 0.00 0.00 53 1014.6
20260510020818 79 258 0.0 2.0 0.00 0.00 0.00 57 1014.1
20260510013814 79 254 1.0 3.0 0.00 0.00 0.00 58 1013.8
20260510010824 80 254 0.0 3.0 0.00 0.00 0.00 58 1013.4
20260510003822 81 252 1.0 4.0 0.00 0.00 0.00 57 1013.0
20260510000816 82 240 1.0 4.0 0.00 0.00 0.00 56 1012.6
20260509233814 82 217 4.0 8.0 0.00 0.00 0.00 55 1012.7
20260509230813 84 274 2.0 10.0 0.00 0.00 0.00 51 1012.5
20260509223832 85 267 4.0 9.0 0.00 0.00 0.00 48 1012.1
20260509220830 86 252 3.0 10.0 0.00 0.00 0.00 47 1011.9
20260509213830 87 236 8.0 13.0 0.00 0.00 0.00 46 1011.8
20260509210847 88 254 5.0 11.0 0.00 0.00 0.00 46 1011.7
20260509203826 88 273 6.0 12.0 0.00 0.00 0.00 45 1011.8
20260509200823 89 302 7.0 12.0 0.00 0.00 0.00 44 1012.1
20260509194139 89 195 3.0 14.0 0.00 0.00 0.00 42 1012.3